Time,TemperatureF,DewpointF,PressureIn,WindDirection,WindDirectionDegrees,WindSpeedMPH,WindSpeedGustMPH,Humidity,HourlyPrecipIn,Conditions,Clouds,dailyrainin,SoftwareType,DateUTC
2013-09-02 00:00:00,48.2,42.0,29.47,NW,321,5.0,5.0,79,0.00,,,0.00,Wunderground v.1.15,2013-09-02 08:00:00,
2013-09-02 00:05:00,48.1,40.9,29.47,North,5,4.0,5.0,76,0.00,,,0.00,Wunderground v.1.15,2013-09-02 08:05:00,
2013-09-02 00:10:00,48.1,40.5,29.47,WNW,284,3.0,3.0,75,0.00,,,0.00,Wunderground v.1.15,2013-09-02 08:10:00,
2013-09-02 00:14:00,47.9,40.7,29.47,NW,309,3.0,3.0,76,0.00,,,0.00,Wunderground v.1.15,2013-09-02 08:14:00,
2013-09-02 00:20:00,47.8,40.6,29.47,NNW,348,3.0,4.0,76,0.00,,,0.00,Wunderground v.1.15,2013-09-02 08:20:00,
2013-09-02 00:25:00,47.7,40.8,29.47,NNW,337,3.0,5.0,77,0.00,,,0.00,Wunderground v.1.15,2013-09-02 08:25:00,
2013-09-02 00:30:00,47.8,40.6,29.47,North,355,5.0,11.0,76,0.00,,,0.00,Wunderground v.1.15,2013-09-02 08:30:00,
2013-09-02 00:34:00,48.0,40.8,29.46,NW,309,7.0,11.0,76,0.00,,,0.00,Wunderground v.1.15,2013-09-02 08:34:00,
2013-09-02 00:40:00,48.2,40.6,29.46,NNW,343,8.0,8.0,75,0.00,,,0.00,Wunderground v.1.15,2013-09-02 08:40:00,
2013-09-02 00:45:00,48.2,41.7,29.46,North,355,7.0,8.0,78,0.00,,,0.00,Wunderground v.1.15,2013-09-02 08:45:00,
2013-09-02 00:50:00,48.3,40.7,29.46,NNE,22,6.0,6.0,75,0.00,,,0.00,Wunderground v.1.15,2013-09-02 08:50:00,
2013-09-02 00:55:00,48.5,40.9,29.46,North,355,6.0,7.0,75,0.00,,,0.00,Wunderground v.1.15,2013-09-02 08:55:00,
2013-09-02 01:00:00,48.6,40.7,29.45,NW,308,7.0,7.0,74,0.00,,,0.00,Wunderground v.1.15,2013-09-02 09:00:00,
2013-09-02 01:05:00,48.7,40.8,29.45,North,355,7.0,9.0,74,0.00,,,0.00,Wunderground v.1.15,2013-09-02 09:05:00,
2013-09-02 01:10:00,48.8,40.9,29.45,NNW,332,9.0,13.0,74,0.00,,,0.00,Wunderground v.1.15,2013-09-02 09:10:00,
2013-09-02 01:15:00,48.8,40.5,29.45,North,351,10.0,13.0,73,0.00,,,0.00,Wunderground v.1.15,2013-09-02 09:15:00,
2013-09-02 01:20:00,48.7,40.4,29.45,NNW,330,12.0,12.0,73,0.00,,,0.00,Wunderground v.1.15,2013-09-02 09:20:00,
2013-09-02 01:25:00,48.6,40.7,29.44,North,350,11.0,12.0,74,0.00,,,0.00,Wunderground v.1.15,2013-09-02 09:25:00,
2013-09-02 01:30:00,48.5,40.6,29.44,NNW,327,10.0,10.0,74,0.00,,,0.00,Wunderground v.1.15,2013-09-02 09:30:00,
2013-09-02 01:35:00,48.4,40.5,29.44,NNW,341,10.0,11.0,74,0.00,,,0.00,Wunderground v.1.15,2013-09-02 09:35:00,
2013-09-02 01:40:00,48.4,40.5,29.44,NNW,331,10.0,10.0,74,0.00,,,0.00,Wunderground v.1.15,2013-09-02 09:40:00,
2013-09-02 01:45:00,48.3,40.4,29.43,NNW,348,11.0,14.0,74,0.00,,,0.00,Wunderground v.1.15,2013-09-02 09:45:00,
2013-09-02 01:50:00,48.2,40.3,29.43,NW,314,11.0,11.0,74,0.00,,,0.00,Wunderground v.1.15,2013-09-02 09:50:00,
2013-09-02 01:55:00,48.1,40.2,29.43,NNW,346,12.0,12.0,74,0.00,,,0.00,Wunderground v.1.15,2013-09-02 09:55:00,
2013-09-02 02:05:00,48.2,40.3,29.43,NW,323,12.0,12.0,74,0.00,,,0.00,Wunderground v.1.15,2013-09-02 10:05:00,
2013-09-02 02:10:00,48.4,40.5,29.42,NNW,346,12.0,16.0,74,0.00,,,0.00,Wunderground v.1.15,2013-09-02 10:10:00,
2013-09-02 02:15:00,48.4,40.5,29.42,NW,315,12.0,16.0,74,0.00,,,0.00,Wunderground v.1.15,2013-09-02 10:15:00,
2013-09-02 02:20:00,48.6,40.3,29.42,NNW,345,12.0,14.0,73,0.00,,,0.00,Wunderground v.1.15,2013-09-02 10:20:00,
2013-09-02 02:30:00,48.5,40.2,29.41,NW,320,12.0,12.0,73,0.00,,,0.00,Wunderground v.1.15,2013-09-02 10:30:00,
2013-09-02 02:35:00,48.6,40.3,29.41,NW,316,12.0,12.0,73,0.00,,,0.00,Wunderground v.1.15,2013-09-02 10:35:00,
2013-09-02 02:39:00,48.7,40.4,29.41,NW,324,11.0,11.0,73,0.00,,,0.00,Wunderground v.1.15,2013-09-02 10:39:00,
2013-09-02 02:45:00,48.9,40.6,29.40,NNW,329,11.0,11.0,73,0.00,,,0.00,Wunderground v.1.15,2013-09-02 10:45:00,
2013-09-02 02:50:00,48.8,40.5,29.40,NNW,340,12.0,13.0,73,0.00,,,0.00,Wunderground v.1.15,2013-09-02 10:50:00,
2013-09-02 02:55:00,48.8,40.5,29.40,NNW,335,13.0,14.0,73,0.00,,,0.00,Wunderground v.1.15,2013-09-02 10:55:00,
2013-09-02 03:00:00,48.5,40.2,29.39,NW,318,14.0,14.0,73,0.00,,,0.00,Wunderground v.1.15,2013-09-02 11:00:00,
2013-09-02 03:05:00,48.4,40.1,29.39,NNW,345,15.0,21.0,73,0.00,,,0.00,Wunderground v.1.15,2013-09-02 11:05:00,
2013-09-02 03:10:00,48.3,40.0,29.39,NNW,340,15.0,15.0,73,0.00,,,0.00,Wunderground v.1.15,2013-09-02 11:10:00,
2013-09-02 03:15:00,48.5,40.2,29.38,NNW,340,13.0,15.0,73,0.00,,,0.00,Wunderground v.1.15,2013-09-02 11:15:00,
2013-09-02 03:20:00,48.6,40.3,29.38,NNW,335,12.0,16.0,73,0.00,,,0.00,Wunderground v.1.15,2013-09-02 11:20:00,
2013-09-02 03:25:00,48.8,40.5,29.38,NNW,340,12.0,16.0,73,0.00,,,0.00,Wunderground v.1.15,2013-09-02 11:25:00,
2013-09-02 03:30:00,48.6,40.0,29.38,NNW,336,12.0,22.0,72,0.00,,,0.00,Wunderground v.1.15,2013-09-02 11:30:00,
2013-09-02 03:40:00,48.2,39.9,29.37,NNW,333,13.0,13.0,73,0.00,,,0.00,Wunderground v.1.15,2013-09-02 11:40:00,
2013-09-02 03:45:00,48.2,39.9,29.36,North,355,13.0,14.0,73,0.00,,,0.00,Wunderground v.1.15,2013-09-02 11:45:00,
2013-09-02 03:50:00,48.1,39.9,29.36,NNW,335,14.0,14.0,73,0.00,,,0.00,Wunderground v.1.15,2013-09-02 11:50:00,
2013-09-02 03:55:00,48.2,39.9,29.35,North,355,14.0,14.0,73,0.00,,,0.00,Wunderground v.1.15,2013-09-02 11:55:00,
2013-09-02 04:00:00,48.4,40.1,29.35,NNW,328,14.0,14.0,73,0.00,,,0.00,Wunderground v.1.15,2013-09-02 12:00:00,
2013-09-02 04:05:00,48.6,40.0,29.35,North,355,14.0,20.0,72,0.00,,,0.00,Wunderground v.1.15,2013-09-02 12:05:00,
2013-09-02 04:10:00,48.6,40.0,29.35,NW,323,15.0,16.0,72,0.00,,,0.00,Wunderground v.1.15,2013-09-02 12:10:00,
2013-09-02 04:15:00,48.5,40.2,29.34,North,10,15.0,16.0,73,0.00,,,0.00,Wunderground v.1.15,2013-09-02 12:15:00,
2013-09-02 04:20:00,48.5,40.2,29.34,NW,324,15.0,15.0,73,0.00,,,0.00,Wunderground v.1.15,2013-09-02 12:20:00,
2013-09-02 04:25:00,48.8,40.2,29.34,NNW,333,16.0,16.0,72,0.00,,,0.00,Wunderground v.1.15,2013-09-02 12:25:00,
2013-09-02 04:30:00,48.9,40.3,29.34,North,5,17.0,17.0,72,0.00,,,0.00,Wunderground v.1.15,2013-09-02 12:30:00,
2013-09-02 04:35:00,48.7,40.1,29.35,NNW,345,16.0,17.0,72,0.00,,,0.00,Wunderground v.1.15,2013-09-02 12:35:00,
2013-09-02 04:40:00,48.6,40.3,29.34,North,350,14.0,14.0,73,0.00,,,0.00,Wunderground v.1.15,2013-09-02 12:40:00,
2013-09-02 04:50:00,48.7,40.1,29.34,NW,313,15.0,17.0,72,0.00,,,0.00,Wunderground v.1.15,2013-09-02 12:50:00,
2013-09-02 05:00:00,48.8,40.2,29.33,NNW,346,15.0,17.0,72,0.00,,,0.00,Wunderground v.1.15,2013-09-02 13:00:00,
2013-09-02 05:05:00,48.8,40.2,29.33,North,9,14.0,17.0,72,0.00,,,0.00,Wunderground v.1.15,2013-09-02 13:05:00,
2013-09-02 05:10:00,48.6,40.0,29.33,North,349,15.0,16.0,72,0.00,,,0.00,Wunderground v.1.15,2013-09-02 13:10:00,
2013-09-02 05:15:00,48.6,40.0,29.33,NNW,332,15.0,20.0,72,0.00,,,0.00,Wunderground v.1.15,2013-09-02 13:15:00,
2013-09-02 05:20:00,48.7,40.1,29.33,NNW,333,15.0,15.0,72,0.00,,,0.00,Wunderground v.1.15,2013-09-02 13:20:00,
2013-09-02 05:25:00,48.8,40.2,29.32,NNW,348,15.0,15.0,72,0.00,,,0.00,Wunderground v.1.15,2013-09-02 13:25:00,
2013-09-02 05:30:00,48.8,40.2,29.32,North,5,16.0,16.0,72,0.00,,,0.00,Wunderground v.1.15,2013-09-02 13:30:00,
2013-09-02 05:34:00,48.7,40.1,29.32,North,360,15.0,24.0,72,0.00,,,0.00,Wunderground v.1.15,2013-09-02 13:34:00,
2013-09-02 05:40:00,48.9,40.3,29.32,North,355,14.0,14.0,72,0.00,,,0.00,Wunderground v.1.15,2013-09-02 13:40:00,
2013-09-02 05:45:00,48.9,39.9,29.32,North,5,16.0,16.0,71,0.00,,,0.00,Wunderground v.1.15,2013-09-02 13:45:00,
2013-09-02 05:50:00,49.1,40.5,29.32,NNW,328,17.0,17.0,72,0.00,,,0.00,Wunderground v.1.15,2013-09-02 13:50:00,
2013-09-02 05:55:00,49.2,40.6,29.32,NNW,345,15.0,17.0,72,0.00,,,0.00,Wunderground v.1.15,2013-09-02 13:55:00,
2013-09-02 06:00:00,49.5,40.5,29.32,NNW,340,15.0,21.0,71,0.00,,,0.00,Wunderground v.1.15,2013-09-02 14:00:00,
2013-09-02 06:05:00,49.5,40.8,29.31,NNW,336,14.0,21.0,72,0.00,,,0.00,Wunderground v.1.15,2013-09-02 14:05:00,
2013-09-02 06:10:00,49.4,40.4,29.31,NNW,327,13.0,16.0,71,0.00,,,0.00,Wunderground v.1.15,2013-09-02 14:10:00,
2013-09-02 06:15:00,49.0,40.0,29.31,NW,315,13.0,18.0,71,0.00,,,0.00,Wunderground v.1.15,2013-09-02 14:15:00,
2013-09-02 06:20:00,48.7,40.1,29.31,NW,324,13.0,16.0,72,0.00,,,0.00,Wunderground v.1.15,2013-09-02 14:20:00,
2013-09-02 06:25:00,48.2,39.9,29.31,WNW,302,14.0,16.0,73,0.00,,,0.00,Wunderground v.1.15,2013-09-02 14:25:00,
2013-09-02 06:30:00,48.2,39.9,29.30,NW,317,13.0,13.0,73,0.00,,,0.00,Wunderground v.1.15,2013-09-02 14:30:00,
2013-09-02 06:40:00,48.1,40.2,29.30,North,349,13.0,13.0,74,0.00,,,0.00,Wunderground v.1.15,2013-09-02 14:40:00,
2013-09-02 06:45:00,47.9,40.0,29.30,North,355,12.0,13.0,74,0.00,,,0.00,Wunderground v.1.15,2013-09-02 14:45:00,
2013-09-02 06:50:00,47.8,40.3,29.30,North,355,12.0,16.0,75,0.00,,,0.00,Wunderground v.1.15,2013-09-02 14:50:00,
2013-09-02 06:54:00,47.4,39.9,29.29,North,351,12.0,16.0,75,0.00,,,0.00,Wunderground v.1.15,2013-09-02 14:54:00,
2013-09-02 07:00:00,47.1,39.9,29.29,NW,306,15.0,15.0,76,0.00,,,0.00,Wunderground v.1.15,2013-09-02 15:00:00,
2013-09-02 07:05:00,47.0,39.8,29.28,NNW,346,17.0,17.0,76,0.00,,,0.00,Wunderground v.1.15,2013-09-02 15:05:00,
2013-09-02 07:10:00,47.1,40.3,29.29,NW,312,17.0,17.0,77,0.00,,,0.00,Wunderground v.1.15,2013-09-02 15:10:00,
2013-09-02 07:15:00,47.0,40.2,29.28,NNW,336,16.0,20.0,77,0.00,,,0.00,Wunderground v.1.15,2013-09-02 15:15:00,
2013-09-02 07:20:00,47.1,40.6,29.28,NNE,24,16.0,16.0,78,0.00,,,0.00,Wunderground v.1.15,2013-09-02 15:20:00,
2013-09-02 07:25:00,47.2,41.0,29.28,North,355,17.0,20.0,79,0.00,,,0.00,Wunderground v.1.15,2013-09-02 15:25:00,
2013-09-02 07:35:00,47.2,41.7,29.27,North,5,15.0,16.0,81,0.00,,,0.00,Wunderground v.1.15,2013-09-02 15:35:00,
2013-09-02 07:40:00,47.2,41.7,29.27,NNW,332,15.0,15.0,81,0.00,,,0.00,Wunderground v.1.15,2013-09-02 15:40:00,
2013-09-02 07:50:00,47.1,41.9,29.27,NNW,338,12.0,13.0,82,0.00,,,0.00,Wunderground v.1.15,2013-09-02 15:50:00,
2013-09-02 07:55:00,47.0,42.1,29.27,North,355,11.0,13.0,83,0.00,,,0.00,Wunderground v.1.15,2013-09-02 15:55:00,
2013-09-02 08:00:00,46.9,42.0,29.26,NNW,342,11.0,14.0,83,0.00,,,0.00,Wunderground v.1.15,2013-09-02 16:00:00,
2013-09-02 08:05:00,46.9,42.0,29.26,NNW,341,14.0,14.0,83,0.00,,,0.00,Wunderground v.1.15,2013-09-02 16:05:00,
2013-09-02 08:10:00,46.7,41.8,29.26,NW,325,14.0,14.0,83,0.00,,,0.00,Wunderground v.1.15,2013-09-02 16:10:00,
2013-09-02 08:15:00,46.6,42.0,29.26,NNE,32,14.0,17.0,84,0.00,,,0.00,Wunderground v.1.15,2013-09-02 16:15:00,
2013-09-02 08:20:00,46.4,41.8,29.25,NNW,348,14.0,14.0,84,0.00,,,0.00,Wunderground v.1.15,2013-09-02 16:20:00,
2013-09-02 08:30:00,45.8,41.2,29.25,NNW,337,14.0,17.0,84,0.00,,,0.00,Wunderground v.1.15,2013-09-02 16:30:00,
2013-09-02 08:35:00,45.9,41.6,29.24,NNW,342,14.0,17.0,85,0.00,,,0.00,Wunderground v.1.15,2013-09-02 16:35:00,
2013-09-02 08:40:00,46.0,41.7,29.24,NNW,348,15.0,15.0,85,0.00,,,0.00,Wunderground v.1.15,2013-09-02 16:40:00,
2013-09-02 08:45:00,46.2,41.9,29.24,NNW,347,15.0,23.0,85,0.00,,,0.00,Wunderground v.1.15,2013-09-02 16:45:00,
2013-09-02 08:50:00,46.1,41.8,29.23,NNW,338,14.0,18.0,85,0.00,,,0.00,Wunderground v.1.15,2013-09-02 16:50:00,
2013-09-02 09:00:00,46.2,41.9,29.23,NNW,330,14.0,16.0,85,0.00,,,0.00,Wunderground v.1.15,2013-09-02 17:00:00,
2013-09-02 09:05:00,46.1,41.8,29.23,North,350,14.0,16.0,85,0.00,,,0.00,Wunderground v.1.15,2013-09-02 17:05:00,
2013-09-02 09:10:00,46.0,41.7,29.22,North,5,14.0,14.0,85,0.00,,,0.00,Wunderground v.1.15,2013-09-02 17:10:00,
2013-09-02 09:15:00,45.9,41.6,29.22,North,350,15.0,18.0,85,0.00,,,0.00,Wunderground v.1.15,2013-09-02 17:15:00,
2013-09-02 09:20:00,45.9,41.9,29.22,NNW,345,15.0,19.0,86,0.00,,,0.00,Wunderground v.1.15,2013-09-02 17:20:00,
2013-09-02 09:25:00,45.9,41.9,29.21,NNW,343,15.0,19.0,86,0.00,,,0.01,Wunderground v.1.15,2013-09-02 17:25:00,
2013-09-02 09:30:00,45.9,42.2,29.21,North,350,15.0,23.0,87,0.00,,,0.01,Wunderground v.1.15,2013-09-02 17:30:00,
2013-09-02 09:35:00,45.9,41.9,29.21,NNW,344,17.0,23.0,86,0.00,,,0.01,Wunderground v.1.15,2013-09-02 17:35:00,
2013-09-02 09:40:00,45.8,42.2,29.21,NNW,327,17.0,17.0,87,0.00,,,0.01,Wunderground v.1.15,2013-09-02 17:40:00,
2013-09-02 09:45:00,45.8,42.2,29.20,North,349,16.0,17.0,87,0.00,,,0.01,Wunderground v.1.15,2013-09-02 17:45:00,
2013-09-02 09:50:00,45.8,42.2,29.20,NNW,342,15.0,15.0,87,0.00,,,0.01,Wunderground v.1.15,2013-09-02 17:50:00,
2013-09-02 09:55:00,45.8,42.2,29.19,NNW,334,15.0,21.0,87,0.00,,,0.01,Wunderground v.1.15,2013-09-02 17:55:00,
2013-09-02 10:00:00,45.8,41.9,29.19,North,355,17.0,18.0,86,0.00,,,0.01,Wunderground v.1.15,2013-09-02 18:00:00,
2013-09-02 10:05:00,45.8,41.9,29.19,NNW,338,18.0,18.0,86,0.00,,,0.01,Wunderground v.1.15,2013-09-02 18:05:00,
2013-09-02 10:10:00,45.6,42.0,29.19,North,360,16.0,16.0,87,0.00,,,0.01,Wunderground v.1.15,2013-09-02 18:10:00,
2013-09-02 10:15:00,45.6,42.0,29.19,NNW,327,15.0,16.0,87,0.00,,,0.01,Wunderground v.1.15,2013-09-02 18:15:00,
2013-09-02 10:20:00,45.4,41.8,29.19,NNE,29,15.0,15.0,87,0.00,,,0.01,Wunderground v.1.15,2013-09-02 18:20:00,
2013-09-02 10:25:00,45.5,41.9,29.19,North,355,14.0,15.0,87,0.00,,,0.01,Wunderground v.1.15,2013-09-02 18:25:00,
2013-09-02 10:30:00,45.4,41.8,29.19,NNW,334,14.0,23.0,87,0.00,,,0.01,Wunderground v.1.15,2013-09-02 18:30:00,
2013-09-02 10:35:00,45.5,41.9,29.18,NNW,348,16.0,23.0,87,0.00,,,0.01,Wunderground v.1.15,2013-09-02 18:35:00,
2013-09-02 10:40:00,45.6,42.0,29.18,NW,324,18.0,21.0,87,0.00,,,0.01,Wunderground v.1.15,2013-09-02 18:40:00,
2013-09-02 10:45:00,45.5,41.9,29.18,NNW,340,17.0,21.0,87,0.00,,,0.01,Wunderground v.1.15,2013-09-02 18:45:00,
2013-09-02 10:50:00,45.5,41.9,29.17,North,5,17.0,17.0,87,0.00,,,0.01,Wunderground v.1.15,2013-09-02 18:50:00,
2013-09-02 10:55:00,45.4,41.8,29.17,North,355,18.0,19.0,87,0.00,,,0.01,Wunderground v.1.15,2013-09-02 18:55:00,
2013-09-02 11:00:00,45.4,42.1,29.16,NW,304,18.0,18.0,88,0.00,,,0.01,Wunderground v.1.15,2013-09-02 19:00:00,
2013-09-02 11:05:00,45.4,42.1,29.16,NNW,329,17.0,18.0,88,0.00,,,0.02,Wunderground v.1.15,2013-09-02 19:05:00,
2013-09-02 11:10:00,45.2,41.9,29.16,NNW,339,16.0,16.0,88,0.00,,,0.02,Wunderground v.1.15,2013-09-02 19:10:00,
2013-09-02 11:15:00,45.1,42.1,29.17,North,360,17.0,17.0,89,0.00,,,0.02,Wunderground v.1.15,2013-09-02 19:15:00,
2013-09-02 11:25:00,44.7,41.7,29.17,North,355,18.0,22.0,89,0.00,,,0.02,Wunderground v.1.15,2013-09-02 19:25:00,
2013-09-02 11:30:00,44.7,41.7,29.17,North,349,18.0,19.0,89,0.00,,,0.02,Wunderground v.1.15,2013-09-02 19:30:00,
2013-09-02 11:35:00,44.7,41.7,29.17,North,10,18.0,19.0,89,0.00,,,0.02,Wunderground v.1.15,2013-09-02 19:35:00,
2013-09-02 11:40:00,44.7,41.9,29.16,NNW,341,18.0,18.0,90,0.00,,,0.02,Wunderground v.1.15,2013-09-02 19:40:00,
2013-09-02 11:45:00,44.7,41.9,29.16,NW,320,18.0,21.0,90,0.00,,,0.02,Wunderground v.1.15,2013-09-02 19:45:00,
2013-09-02 11:50:00,44.6,41.6,29.16,NNW,342,18.0,18.0,89,0.00,,,0.02,Wunderground v.1.15,2013-09-02 19:50:00,
2013-09-02 12:00:00,44.5,41.7,29.15,NNW,339,19.0,19.0,90,0.00,,,0.03,Wunderground v.1.15,2013-09-02 20:00:00,
2013-09-02 12:05:00,44.4,41.7,29.15,NNW,347,18.0,19.0,90,0.00,,,0.03,Wunderground v.1.15,2013-09-02 20:05:00,
2013-09-02 12:15:00,44.6,41.8,29.15,NNW,346,19.0,23.0,90,0.00,,,0.03,Wunderground v.1.15,2013-09-02 20:15:00,
2013-09-02 12:20:00,44.6,41.8,29.15,North,355,18.0,18.0,90,0.00,,,0.03,Wunderground v.1.15,2013-09-02 20:20:00,
2013-09-02 12:25:00,44.6,41.8,29.15,North,5,17.0,18.0,90,0.00,,,0.03,Wunderground v.1.15,2013-09-02 20:25:00,
2013-09-02 12:30:00,44.5,41.7,29.14,North,360,16.0,19.0,90,0.00,,,0.03,Wunderground v.1.15,2013-09-02 20:30:00,
2013-09-02 12:35:00,44.5,41.7,29.14,NNW,346,16.0,21.0,90,0.00,,,0.03,Wunderground v.1.15,2013-09-02 20:35:00,
2013-09-02 12:40:00,44.5,41.7,29.14,NNW,342,16.0,20.0,90,0.00,,,0.03,Wunderground v.1.15,2013-09-02 20:40:00,
2013-09-02 12:45:00,44.5,42.0,29.14,NNW,342,16.0,20.0,91,0.00,,,0.03,Wunderground v.1.15,2013-09-02 20:45:00,
2013-09-02 12:50:00,44.5,42.0,29.14,NNW,342,16.0,16.0,91,0.00,,,0.03,Wunderground v.1.15,2013-09-02 20:50:00,
2013-09-02 12:55:00,44.5,42.0,29.14,NNW,329,16.0,16.0,91,0.00,,,0.03,Wunderground v.1.15,2013-09-02 20:55:00,
2013-09-02 13:00:00,44.5,42.0,29.14,NNW,333,15.0,22.0,91,0.00,,,0.03,Wunderground v.1.15,2013-09-02 21:00:00,
2013-09-02 13:05:00,44.6,42.1,29.14,NNW,336,15.0,22.0,91,0.00,,,0.03,Wunderground v.1.15,2013-09-02 21:05:00,
2013-09-02 13:10:00,44.7,42.2,29.14,NNW,344,15.0,15.0,91,0.00,,,0.03,Wunderground v.1.15,2013-09-02 21:10:00,
2013-09-02 13:15:00,44.7,42.2,29.14,NNW,327,14.0,15.0,91,0.00,,,0.03,Wunderground v.1.15,2013-09-02 21:15:00,
2013-09-02 13:20:00,44.7,42.5,29.14,North,350,14.0,15.0,92,0.00,,,0.03,Wunderground v.1.15,2013-09-02 21:20:00,
2013-09-02 13:25:00,44.7,42.5,29.14,NNE,22,13.0,15.0,92,0.00,,,0.04,Wunderground v.1.15,2013-09-02 21:25:00,
2013-09-02 13:30:00,44.7,42.5,29.13,North,349,13.0,15.0,92,0.00,,,0.04,Wunderground v.1.15,2013-09-02 21:30:00,
2013-09-02 13:35:00,44.7,42.5,29.13,NNW,339,13.0,15.0,92,0.07,,,0.05,Wunderground v.1.15,2013-09-02 21:35:00,
2013-09-02 13:40:00,44.8,42.6,29.13,NNW,344,14.0,14.0,92,0.07,,,0.05,Wunderground v.1.15,2013-09-02 21:40:00,
2013-09-02 13:45:00,45.0,42.8,29.13,NW,317,14.0,19.0,92,0.05,,,0.05,Wunderground v.1.15,2013-09-02 21:45:00,
2013-09-02 13:55:00,45.4,43.5,29.13,North,355,13.0,13.0,93,0.04,,,0.06,Wunderground v.1.15,2013-09-02 21:55:00,
2013-09-02 14:00:00,45.5,43.3,29.13,North,360,13.0,13.0,92,0.04,,,0.06,Wunderground v.1.15,2013-09-02 22:00:00,
2013-09-02 14:09:00,45.7,43.5,29.12,NNE,19,14.0,14.0,92,0.00,,,0.06,Wunderground v.1.15,2013-09-02 22:09:00,
2013-09-02 14:15:00,45.9,43.7,29.12,NNW,346,14.0,15.0,92,0.00,,,0.06,Wunderground v.1.15,2013-09-02 22:15:00,
2013-09-02 14:19:00,45.9,43.7,29.12,NNW,338,14.0,16.0,92,0.00,,,0.06,Wunderground v.1.15,2013-09-02 22:19:00,
2013-09-02 14:25:00,46.0,43.8,29.11,North,350,15.0,16.0,92,0.00,,,0.06,Wunderground v.1.15,2013-09-02 22:25:00,
2013-09-02 14:30:00,46.0,44.1,29.11,North,5,14.0,16.0,93,0.00,,,0.06,Wunderground v.1.15,2013-09-02 22:30:00,
2013-09-02 14:35:00,46.0,43.8,29.10,NNW,331,14.0,17.0,92,0.00,,,0.07,Wunderground v.1.15,2013-09-02 22:35:00,
2013-09-02 14:40:00,46.1,44.2,29.10,North,355,16.0,17.0,93,0.00,,,0.07,Wunderground v.1.15,2013-09-02 22:40:00,
2013-09-02 14:45:00,46.1,44.2,29.10,North,355,17.0,18.0,93,0.00,,,0.07,Wunderground v.1.15,2013-09-02 22:45:00,
2013-09-02 14:50:00,46.3,44.4,29.10,North,360,17.0,17.0,93,0.00,,,0.07,Wunderground v.1.15,2013-09-02 22:50:00,
2013-09-02 14:55:00,46.5,44.3,29.09,NNW,343,16.0,17.0,92,0.00,,,0.07,Wunderground v.1.15,2013-09-02 22:55:00,
2013-09-02 15:00:00,46.6,44.7,29.09,NNW,333,15.0,19.0,93,0.00,,,0.07,Wunderground v.1.15,2013-09-02 23:00:00,
2013-09-02 15:05:00,46.8,44.9,29.09,North,355,14.0,24.0,93,0.00,,,0.07,Wunderground v.1.15,2013-09-02 23:05:00,
2013-09-02 15:10:00,46.9,45.0,29.09,NNW,330,15.0,15.0,93,0.00,,,0.07,Wunderground v.1.15,2013-09-02 23:10:00,
2013-09-02 15:15:00,47.0,45.1,29.09,NNW,333,14.0,15.0,93,0.00,,,0.07,Wunderground v.1.15,2013-09-02 23:15:00,
2013-09-02 15:20:00,47.0,45.1,29.09,North,355,13.0,16.0,93,0.00,,,0.07,Wunderground v.1.15,2013-09-02 23:20:00,
2013-09-02 15:25:00,47.0,45.1,29.09,North,355,13.0,16.0,93,0.00,,,0.07,Wunderground v.1.15,2013-09-02 23:25:00,
2013-09-02 15:30:00,47.1,45.2,29.09,North,5,12.0,12.0,93,0.00,,,0.07,Wunderground v.1.15,2013-09-02 23:30:00,
2013-09-02 15:35:00,47.2,45.3,29.09,North,5,11.0,13.0,93,0.00,,,0.08,Wunderground v.1.15,2013-09-02 23:35:00,
2013-09-02 15:45:00,47.3,45.4,29.10,NNW,330,7.0,10.0,93,0.00,,,0.08,Wunderground v.1.15,2013-09-02 23:45:00,
2013-09-02 15:50:00,47.4,45.5,29.09,ENE,68,4.0,4.0,93,0.00,,,0.08,Wunderground v.1.15,2013-09-02 23:50:00,
2013-09-02 15:55:00,47.6,46.0,29.10,NW,313,3.0,6.0,94,0.00,,,0.09,Wunderground v.1.15,2013-09-02 23:55:00,
2013-09-02 16:00:00,47.8,46.2,29.09,NNW,346,3.0,3.0,94,0.00,,,0.09,Wunderground v.1.15,2013-09-03 00:00:00,
2013-09-02 16:05:00,47.9,46.3,29.10,South,186,2.0,3.0,94,0.00,,,0.09,Wunderground v.1.15,2013-09-03 00:05:00,
2013-09-02 16:10:00,48.1,46.5,29.09,NNW,329,1.0,4.0,94,0.00,,,0.09,Wunderground v.1.15,2013-09-03 00:10:00,
2013-09-02 16:15:00,48.4,47.0,29.09,ENE,75,1.0,5.0,95,0.00,,,0.09,Wunderground v.1.15,2013-09-03 00:15:00,
2013-09-02 16:20:00,48.4,46.8,29.09,NW,324,2.0,6.0,94,0.00,,,0.09,Wunderground v.1.15,2013-09-03 00:20:00,
2013-09-02 16:25:00,48.6,47.2,29.09,ENE,58,3.0,10.0,95,0.00,,,0.09,Wunderground v.1.15,2013-09-03 00:25:00,
2013-09-02 16:30:00,48.7,47.1,29.08,NNW,344,5.0,13.0,94,0.00,,,0.09,Wunderground v.1.15,2013-09-03 00:30:00,
2013-09-02 16:34:00,48.7,47.1,29.08,NNW,342,5.0,13.0,94,0.00,,,0.09,Wunderground v.1.15,2013-09-03 00:34:00,
2013-09-02 16:40:00,48.8,47.2,29.09,NW,313,6.0,6.0,94,0.00,,,0.09,Wunderground v.1.15,2013-09-03 00:40:00,
2013-09-02 16:45:00,48.8,47.2,29.08,North,11,5.0,6.0,94,0.00,,,0.09,Wunderground v.1.15,2013-09-03 00:45:00,
2013-09-02 16:50:00,48.9,47.2,29.08,NNW,343,4.0,4.0,94,0.00,,,0.09,Wunderground v.1.15,2013-09-03 00:50:00,
2013-09-02 16:55:00,49.0,47.3,29.08,NW,323,4.0,4.0,94,0.00,,,0.09,Wunderground v.1.15,2013-09-03 00:55:00,
2013-09-02 17:05:00,49.3,47.6,29.08,West,280,4.0,5.0,94,0.00,,,0.09,Wunderground v.1.15,2013-09-03 01:05:00,
2013-09-02 17:10:00,49.5,47.8,29.08,NNW,333,3.0,3.0,94,0.00,,,0.09,Wunderground v.1.15,2013-09-03 01:10:00,
2013-09-02 17:15:00,49.7,48.0,29.07,WNW,286,3.0,3.0,94,0.00,,,0.09,Wunderground v.1.15,2013-09-03 01:15:00,
2013-09-02 17:20:00,49.9,48.5,29.07,WSW,240,2.0,2.0,95,0.00,,,0.09,Wunderground v.1.15,2013-09-03 01:20:00,
2013-09-02 17:25:00,50.0,48.3,29.07,NNW,329,2.0,4.0,94,0.00,,,0.09,Wunderground v.1.15,2013-09-03 01:25:00,
2013-09-02 17:35:00,50.0,48.3,29.07,WNW,296,3.0,3.0,94,0.00,,,0.09,Wunderground v.1.15,2013-09-03 01:35:00,
2013-09-02 17:40:00,49.9,48.2,29.07,NW,325,4.0,4.0,94,0.00,,,0.09,Wunderground v.1.15,2013-09-03 01:40:00,
2013-09-02 17:45:00,49.8,48.1,29.06,NW,326,4.0,8.0,94,0.00,,,0.09,Wunderground v.1.15,2013-09-03 01:45:00,
2013-09-02 17:50:00,49.7,48.0,29.07,North,355,5.0,6.0,94,0.00,,,0.09,Wunderground v.1.15,2013-09-03 01:50:00,
2013-09-02 17:55:00,49.5,47.6,29.06,North,355,7.0,7.0,93,0.00,,,0.09,Wunderground v.1.15,2013-09-03 01:55:00,
2013-09-02 18:05:00,49.5,47.8,29.06,NNW,336,8.0,9.0,94,0.00,,,0.09,Wunderground v.1.15,2013-09-03 02:05:00,
2013-09-02 18:10:00,49.5,47.8,29.06,NNW,329,8.0,8.0,94,0.00,,,0.09,Wunderground v.1.15,2013-09-03 02:10:00,
2013-09-02 18:15:00,49.5,47.6,29.06,NNW,331,8.0,10.0,93,0.00,,,0.09,Wunderground v.1.15,2013-09-03 02:15:00,
2013-09-02 18:20:00,49.6,47.9,29.06,NNW,342,8.0,8.0,94,0.00,,,0.09,Wunderground v.1.15,2013-09-03 02:20:00,
2013-09-02 18:25:00,49.7,48.0,29.06,NNW,336,6.0,8.0,94,0.00,,,0.09,Wunderground v.1.15,2013-09-03 02:25:00,
2013-09-02 18:35:00,49.7,47.8,29.06,NW,322,8.0,8.0,93,0.00,,,0.09,Wunderground v.1.15,2013-09-03 02:35:00,
2013-09-02 18:40:00,49.7,47.8,29.06,NNW,342,8.0,8.0,93,0.00,,,0.09,Wunderground v.1.15,2013-09-03 02:40:00,
2013-09-02 18:45:00,49.7,48.0,29.06,NNW,340,7.0,11.0,94,0.00,,,0.09,Wunderground v.1.15,2013-09-03 02:45:00,
2013-09-02 18:50:00,49.7,48.0,29.06,NNW,329,7.0,8.0,94,0.00,,,0.09,Wunderground v.1.15,2013-09-03 02:50:00,
2013-09-02 18:55:00,49.6,47.9,29.05,North,360,8.0,8.0,94,0.00,,,0.09,Wunderground v.1.15,2013-09-03 02:55:00,
2013-09-02 19:00:00,49.8,48.1,29.05,NNE,17,9.0,9.0,94,0.00,,,0.10,Wunderground v.1.15,2013-09-03 03:00:00,
2013-09-02 19:05:00,49.8,48.1,29.05,NNW,335,9.0,11.0,94,0.00,,,0.10,Wunderground v.1.15,2013-09-03 03:05:00,
2013-09-02 19:10:00,49.9,48.2,29.05,North,349,9.0,13.0,94,0.00,,,0.10,Wunderground v.1.15,2013-09-03 03:10:00,
2013-09-02 19:15:00,50.0,48.3,29.05,North,355,8.0,13.0,94,0.00,,,0.10,Wunderground v.1.15,2013-09-03 03:15:00,
2013-09-02 19:20:00,50.2,48.5,29.04,North,360,8.0,8.0,94,0.00,,,0.10,Wunderground v.1.15,2013-09-03 03:20:00,
2013-09-02 19:25:00,50.3,48.6,29.04,North,355,8.0,10.0,94,0.00,,,0.10,Wunderground v.1.15,2013-09-03 03:25:00,
2013-09-02 19:30:00,50.4,48.7,29.04,North,360,9.0,9.0,94,0.00,,,0.10,Wunderground v.1.15,2013-09-03 03:30:00,
2013-09-02 19:35:00,50.5,48.8,29.05,North,360,9.0,9.0,94,0.00,,,0.10,Wunderground v.1.15,2013-09-03 03:35:00,
2013-09-02 19:40:00,50.6,48.9,29.04,North,355,9.0,14.0,94,0.00,,,0.10,Wunderground v.1.15,2013-09-03 03:40:00,
2013-09-02 19:45:00,50.7,49.0,29.05,North,10,9.0,14.0,94,0.00,,,0.10,Wunderground v.1.15,2013-09-03 03:45:00,
2013-09-02 19:50:00,50.8,49.1,29.04,NNW,346,8.0,10.0,94,0.00,,,0.10,Wunderground v.1.15,2013-09-03 03:50:00,
2013-09-02 19:55:00,50.8,49.1,29.04,NNW,336,8.0,10.0,94,0.00,,,0.10,Wunderground v.1.15,2013-09-03 03:55:00,
2013-09-02 20:00:00,50.8,49.1,29.04,North,355,7.0,10.0,94,0.00,,,0.10,Wunderground v.1.15,2013-09-03 04:00:00,
2013-09-02 20:05:00,50.8,49.1,29.04,North,351,7.0,10.0,94,0.00,,,0.10,Wunderground v.1.15,2013-09-03 04:05:00,
2013-09-02 20:10:00,51.0,49.3,29.04,North,5,7.0,7.0,94,0.00,,,0.10,Wunderground v.1.15,2013-09-03 04:10:00,
2013-09-02 20:15:00,51.3,49.6,29.05,NNW,346,7.0,7.0,94,0.00,,,0.10,Wunderground v.1.15,2013-09-03 04:15:00,
2013-09-02 20:20:00,51.6,49.9,29.04,North,355,7.0,8.0,94,0.00,,,0.10,Wunderground v.1.15,2013-09-03 04:20:00,
2013-09-02 20:25:00,51.7,50.0,29.04,NNW,338,7.0,8.0,94,0.00,,,0.10,Wunderground v.1.15,2013-09-03 04:25:00,
2013-09-02 20:30:00,51.6,49.6,29.05,North,5,8.0,10.0,93,0.00,,,0.10,Wunderground v.1.15,2013-09-03 04:30:00,
2013-09-02 20:35:00,51.4,49.7,29.05,North,360,8.0,10.0,94,0.00,,,0.10,Wunderground v.1.15,2013-09-03 04:35:00,
2013-09-02 20:40:00,51.2,49.5,29.05,NNE,18,8.0,8.0,94,0.00,,,0.10,Wunderground v.1.15,2013-09-03 04:40:00,
2013-09-02 20:45:00,51.2,49.8,29.05,ENE,63,7.0,8.0,95,0.00,,,0.10,Wunderground v.1.15,2013-09-03 04:45:00,
2013-09-02 20:50:00,51.2,49.8,29.05,North,5,6.0,9.0,95,0.00,,,0.10,Wunderground v.1.15,2013-09-03 04:50:00,
2013-09-02 20:55:00,51.1,49.7,29.05,NNE,15,6.0,9.0,95,0.00,,,0.10,Wunderground v.1.15,2013-09-03 04:55:00,
2013-09-02 21:04:00,51.1,49.7,29.05,NNE,28,6.0,6.0,95,0.00,,,0.10,Wunderground v.1.15,2013-09-03 05:04:00,
2013-09-02 21:10:00,51.1,49.7,29.05,North,11,7.0,7.0,95,0.00,,,0.10,Wunderground v.1.15,2013-09-03 05:10:00,
2013-09-02 21:20:00,51.1,49.7,29.05,NNE,16,5.0,5.0,95,0.00,,,0.10,Wunderground v.1.15,2013-09-03 05:20:00,
2013-09-02 21:25:00,51.1,49.7,29.05,NNE,20,4.0,5.0,95,0.00,,,0.10,Wunderground v.1.15,2013-09-03 05:25:00,
2013-09-02 21:30:00,51.2,49.8,29.05,NE,55,4.0,4.0,95,0.00,,,0.10,Wunderground v.1.15,2013-09-03 05:30:00,
2013-09-02 21:35:00,51.3,49.9,29.05,North,9,4.0,5.0,95,0.00,,,0.10,Wunderground v.1.15,2013-09-03 05:35:00,
2013-09-02 21:40:00,51.3,49.9,29.05,ENE,74,3.0,3.0,95,0.00,,,0.10,Wunderground v.1.15,2013-09-03 05:40:00,
2013-09-02 21:45:00,51.3,49.9,29.05,NE,44,2.0,3.0,95,0.00,,,0.10,Wunderground v.1.15,2013-09-03 05:45:00,
2013-09-02 21:50:00,51.2,49.8,29.06,NNE,22,2.0,4.0,95,0.00,,,0.10,Wunderground v.1.15,2013-09-03 05:50:00,
2013-09-02 21:55:00,51.2,49.8,29.05,NE,45,2.0,4.0,95,0.00,,,0.10,Wunderground v.1.15,2013-09-03 05:55:00,
2013-09-02 22:00:00,51.2,50.1,29.05,NE,39,2.0,3.0,96,0.00,,,0.10,Wunderground v.1.15,2013-09-03 06:00:00,
2013-09-02 22:05:00,51.2,50.1,29.05,NE,39,1.0,3.0,96,0.00,,,0.10,Wunderground v.1.15,2013-09-03 06:05:00,
2013-09-02 22:09:00,51.3,50.2,29.05,NE,39,1.0,1.0,96,0.00,,,0.10,Wunderground v.1.15,2013-09-03 06:09:00,
2013-09-02 22:14:00,51.3,50.2,29.06,ENE,77,1.0,1.0,96,0.00,,,0.10,Wunderground v.1.15,2013-09-03 06:14:00,
2013-09-02 22:20:00,51.4,50.3,29.06,ENE,75,1.0,3.0,96,0.00,,,0.10,Wunderground v.1.15,2013-09-03 06:20:00,
2013-09-02 22:25:00,51.4,50.3,29.06,ENE,74,1.0,3.0,96,0.00,,,0.10,Wunderground v.1.15,2013-09-03 06:25:00,
2013-09-02 22:30:00,51.3,50.2,29.06,ENE,69,1.0,1.0,96,0.00,,,0.10,Wunderground v.1.15,2013-09-03 06:30:00,
2013-09-02 22:35:00,51.3,50.2,29.06,ENE,69,1.0,1.0,96,0.00,,,0.10,Wunderground v.1.15,2013-09-03 06:35:00,
2013-09-02 22:40:00,51.2,50.1,29.06,ENE,69,1.0,1.0,96,0.00,,,0.10,Wunderground v.1.15,2013-09-03 06:40:00,
2013-09-02 22:45:00,51.1,50.0,29.06,ENE,69,1.0,1.0,96,0.00,,,0.10,Wunderground v.1.15,2013-09-03 06:45:00,
2013-09-02 22:50:00,51.0,49.9,29.07,ENE,71,1.0,1.0,96,0.00,,,0.10,Wunderground v.1.15,2013-09-03 06:50:00,
2013-09-02 22:55:00,50.9,49.8,29.07,ESE,116,1.0,1.0,96,0.00,,,0.11,Wunderground v.1.15,2013-09-03 06:55:00,
2013-09-02 23:05:00,50.9,50.1,29.07,ESE,105,0.0,1.0,97,0.00,,,0.11,Wunderground v.1.15,2013-09-03 07:05:00,
2013-09-02 23:10:00,50.9,50.1,29.08,ESE,105,0.0,0.0,97,0.00,,,0.11,Wunderground v.1.15,2013-09-03 07:10:00,
2013-09-02 23:15:00,50.9,50.1,29.07,ESE,105,0.0,0.0,97,0.00,,,0.11,Wunderground v.1.15,2013-09-03 07:15:00,
2013-09-02 23:20:00,50.9,50.1,29.07,ESE,105,0.0,0.0,97,0.00,,,0.11,Wunderground v.1.15,2013-09-03 07:20:00,
2013-09-02 23:25:00,50.9,50.1,29.07,ESE,108,0.0,4.0,97,0.00,,,0.11,Wunderground v.1.15,2013-09-03 07:25:00,
2013-09-02 23:30:00,50.9,50.1,29.07,SE,124,1.0,1.0,97,0.00,,,0.11,Wunderground v.1.15,2013-09-03 07:30:00,
2013-09-02 23:35:00,50.8,50.0,29.07,ESE,123,1.0,1.0,97,0.00,,,0.11,Wunderground v.1.15,2013-09-03 07:35:00,
2013-09-02 23:40:00,50.7,49.9,29.08,ESE,123,0.0,2.0,97,0.00,,,0.11,Wunderground v.1.15,2013-09-03 07:40:00,
2013-09-02 23:45:00,50.6,49.8,29.08,ESE,123,0.0,2.0,97,0.00,,,0.11,Wunderground v.1.15,2013-09-03 07:45:00,
2013-09-02 23:50:00,50.5,50.0,29.08,ESE,123,0.0,0.0,98,0.00,,,0.11,Wunderground v.1.15,2013-09-03 07:50:00,